This is the latest recevied weather packets stored in our database for station/object K5SVV. If no packets are shown the sender has not sent any weather packets the latest 10 day(s).
| Time | Temp. | Humidity | Pressure | Rain* | Wind** | Luminosity | Snow |
|---|---|---|---|---|---|---|---|
| 1788398990 | 30.56° C | 64% | 1011.7 hPa | 0 mm | - | 0 W/m² | - |
| 1788398689 | 30.56° C | 63% | 1011.6 hPa | 0 mm | - | 0 W/m² | - |
| 1788398388 | 31.11° C | 63% | 1011.5 hPa | 0 mm | - | 0 W/m² | - |
| 1788398083 | 31.11° C | 63% | 1011.5 hPa | 0 mm | - | 0 W/m² | - |
| 1788397778 | 31.11° C | 62% | 1011.6 hPa | 0 mm | - | 0 W/m² | - |
| 1788397474 | 31.11° C | 62% | 1011.4 hPa | 0 mm | - | 0 W/m² | - |
| 1788397171 | 31.67° C | 61% | 1011.4 hPa | 0 mm | - | 0 W/m² | - |
| 1788396867 | 31.67° C | 61% | 1011.6 hPa | 0 mm | - | 0 W/m² | - |
| 1788396564 | 31.67° C | 61% | 1011.5 hPa | 0 mm | - | 2 W/m² | - |
| 1788396258 | 31.67° C | 60% | 1011.5 hPa | 0 mm | - | 7 W/m² | - |
| 1788395953 | 32.22° C | 59% | 1011.4 hPa | 0 mm | - | 12 W/m² | - |
| 1788395648 | 32.22° C | 59% | 1011.3 hPa | 0 mm | - | 15 W/m² | - |
| 1788395348 | 32.22° C | 58% | 1011.4 hPa | 0 mm | - | 22 W/m² | - |
| 1788395043 | 32.78° C | 57% | 1011.6 hPa | 0 mm | - | 30 W/m² | - |
| 1788394743 | 32.78° C | 57% | 1011.7 hPa | 0 mm | - | 31 W/m² | - |
| 1788394438 | 32.78° C | 56% | 1011.3 hPa | 0 mm | - | 30 W/m² | - |
| 1788394137 | 32.78° C | 55% | 1011.3 hPa | 0 mm | - | 30 W/m² | - |
| 1788393833 | 33.33° C | 53% | 1011.2 hPa | 0 mm | - | 32 W/m² | - |
| 1788393530 | 33.89° C | 52% | 1011.3 hPa | 0 mm | - | 33 W/m² | - |
| 1788393226 | 34.44° C | 50% | 1011.1 hPa | 0 mm | - | 51 W/m² | - |
| 1788392920 | 35° C | 48% | 1011.1 hPa | 0 mm | - | 49 W/m² | - |
| 1788392615 | 35° C | 47% | 1011 hPa | 0 mm | - | 119 W/m² | - |
| 1788392314 | 35° C | 47% | 1011.3 hPa | 0 mm | - | 148 W/m² | - |
| 1788392014 | 35° C | 48% | 1011.1 hPa | 0 mm | - | 83 W/m² | - |
| 1788391712 | 35° C | 48% | 1011.1 hPa | 0 mm | - | 78 W/m² | - |
* Rain latest hour (hover to see other rain measurements)
** Current wind speed in m/s (hover to see current wind gust speed)